| time (UTC) | temp F | wind direction | speed MPH | gust MPH | rain 1hr in | rain 24hr in | rain mn in | humidity % | barometer mb |
| 20260510184346 | 54 | 281 | 2.0 | 6.0 | 0.00 | 0.31 | 0.07 | 43 | 1016.4 |
| 20260510183844 | 54 | 346 | 2.0 | 9.0 | 0.00 | 0.31 | 0.07 | 43 | 1016.4 |
| 20260510183331 | 55 | 319 | 2.0 | 9.0 | 0.00 | 0.31 | 0.07 | 44 | 1016.4 |
| 20260510182822 | 55 | 10 | 2.0 | 5.0 | 0.00 | 0.31 | 0.07 | 43 | 1016.4 |
| 20260510182252 | 54 | 341 | 3.0 | 10.0 | 0.00 | 0.31 | 0.07 | 44 | 1016.3 |
| 20260510181719 | 55 | 333 | 2.0 | 10.0 | 0.00 | 0.31 | 0.07 | 45 | 1016.2 |
| 20260510181146 | 55 | 261 | 1.0 | 6.0 | 0.00 | 0.31 | 0.07 | 47 | 1016.2 |
| 20260510180620 | 55 | 342 | 1.0 | 4.0 | 0.00 | 0.31 | 0.07 | 45 | 1016.2 |
| 20260510180046 | 55 | 26 | 2.0 | 7.0 | 0.00 | 0.31 | 0.07 | 45 | 1016.2 |
| 20260510175538 | 56 | 267 | 2.0 | 7.0 | 0.00 | 0.31 | 0.07 | 44 | 1016.2 |
| 20260510175014 | 56 | 287 | 3.0 | 9.0 | 0.00 | 0.31 | 0.07 | 46 | 1016.1 |
| 20260510174446 | 56 | 245 | 2.0 | 8.0 | 0.00 | 0.31 | 0.07 | 43 | 1016.1 |
| 20260510173918 | 56 | 324 | 2.0 | 6.0 | 0.00 | 0.31 | 0.07 | 45 | 1016.2 |
| 20260510173603 | 56 | 250 | 1.0 | 5.0 | 0.00 | 0.31 | 0.07 | 45 | 1016.1 |
| 20260510172808 | 56 | 284 | 2.0 | 5.0 | 0.00 | 0.31 | 0.07 | 43 | 1016.2 |
| 20260510172240 | 56 | 24 | 2.0 | 9.0 | 0.00 | 0.31 | 0.07 | 44 | 1016.1 |
| 20260510171717 | 56 | 33 | 2.0 | 5.0 | 0.00 | 0.31 | 0.07 | 47 | 1016.0 |
| 20260510171204 | 56 | 337 | 2.0 | 5.0 | 0.00 | 0.31 | 0.07 | 40 | 1016.0 |
| 20260510170706 | 57 | 299 | 1.0 | 4.0 | 0.00 | 0.31 | 0.07 | 48 | 1015.8 |
| 20260510170152 | 56 | 5 | 2.0 | 4.0 | 0.00 | 0.31 | 0.07 | 50 | 1015.9 |
| 20260510165646 | 56 | 283 | 3.0 | 5.0 | 0.00 | 0.31 | 0.07 | 48 | 1015.8 |
| 20260510165410 | 56 | 355 | 2.0 | 6.0 | 0.00 | 0.31 | 0.07 | 48 | 1015.9 |
| 20260510164613 | 56 | 261 | 1.0 | 5.0 | 0.00 | 0.31 | 0.07 | 48 | 1015.8 |
| 20260510164045 | 55 | 355 | 1.0 | 5.0 | 0.00 | 0.31 | 0.07 | 51 | 1015.7 |
| 20260510163514 | 55 | 325 | 1.0 | 6.0 | 0.00 | 0.31 | 0.07 | 52 | 1015.7 |
| 20260510162941 | 55 | 327 | 1.0 | 4.0 | 0.00 | 0.31 | 0.07 | 51 | 1015.6 |
| 20260510162406 | 55 | 318 | 1.0 | 4.0 | 0.00 | 0.31 | 0.07 | 52 | 1015.5 |
| 20260510162112 | 54 | 19 | 1.0 | 4.0 | 0.00 | 0.31 | 0.07 | 52 | 1015.5 |
| 20260510161354 | 54 | 355 | 1.0 | 4.0 | 0.00 | 0.31 | 0.07 | 55 | 1015.4 |
| 20260510161102 | 54 | 338 | 1.0 | 3.0 | 0.00 | 0.31 | 0.07 | 54 | 1015.2 |
| 20260510160346 | 54 | 338 | 1.0 | 4.0 | 0.00 | 0.31 | 0.07 | 56 | 1015.1 |
| 20260510155816 | 53 | 348 | 1.0 | 5.0 | 0.00 | 0.31 | 0.07 | 57 | 1015.2 |
| 20260510155320 | 53 | 326 | 1.0 | 5.0 | 0.00 | 0.31 | 0.07 | 57 | 1015.4 |
| 20260510154743 | 54 | 325 | 0.0 | 4.0 | 0.00 | 0.31 | 0.07 | 54 | 1015.1 |
| 20260510154236 | 54 | 324 | 0.0 | 2.0 | 0.00 | 0.31 | 0.07 | 58 | 1015.3 |
| 20260510153739 | 53 | 355 | 1.0 | 4.0 | 0.00 | 0.31 | 0.07 | 56 | 1015.2 |
| 20260510153222 | 53 | 355 | 1.0 | 7.0 | 0.00 | 0.31 | 0.07 | 57 | 1015.0 |
| 20260510152711 | 52 | 355 | 1.0 | 7.0 | 0.00 | 0.31 | 0.07 | 59 | 1014.9 |
| 20260510152141 | 52 | 339 | 2.0 | 5.0 | 0.00 | 0.31 | 0.07 | 60 | 1014.9 |
| 20260510151632 | 52 | 337 | 2.0 | 5.0 | 0.00 | 0.31 | 0.07 | 59 | 1014.9 |
| 20260510151132 | 52 | 310 | 2.0 | 5.0 | 0.00 | 0.31 | 0.07 | 61 | 1014.8 |
| 20260510150839 | 52 | 306 | 1.0 | 4.0 | 0.00 | 0.31 | 0.07 | 60 | 1014.6 |
| 20260510150116 | 51 | 11 | 1.0 | 6.0 | 0.00 | 0.31 | 0.07 | 61 | 1014.6 |
| 20260510145539 | 51 | 9 | 1.0 | 6.0 | 0.00 | 0.31 | 0.07 | 60 | 1014.6 |
| 20260510145241 | 51 | 17 | 1.0 | 5.0 | 0.00 | 0.31 | 0.07 | 59 | 1014.6 |
| 20260510144718 | 51 | 17 | 1.0 | 5.0 | 0.00 | 0.31 | 0.07 | 60 | 1014.6 |
| 20260510143952 | 51 | 26 | 2.0 | 6.0 | 0.00 | 0.31 | 0.07 | 61 | 1014.5 |
| 20260510143642 | 51 | 26 | 1.0 | 6.0 | 0.00 | 0.31 | 0.07 | 59 | 1014.6 |
| 20260510143344 | 50 | 5 | 1.0 | 5.0 | 0.00 | 0.31 | 0.07 | 60 | 1014.6 |
| 20260510142341 | 50 | 0 | 2.0 | 7.0 | 0.00 | 0.31 | 0.07 | 63 | 1014.5 |
| 20260510141836 | 50 | 15 | 2.0 | 7.0 | 0.00 | 0.31 | 0.07 | 60 | 1014.5 |
| 20260510141309 | 50 | 333 | 0.0 | 4.0 | 0.00 | 0.31 | 0.07 | 63 | 1014.4 |
| 20260510140752 | 50 | 333 | 1.0 | 5.0 | 0.00 | 0.31 | 0.07 | 64 | 1014.4 |
| 20260510140256 | 49 | 333 | 1.0 | 5.0 | 0.00 | 0.31 | 0.07 | 65 | 1014.4 |
| 20260510135728 | 49 | 19 | 0.0 | 0.0 | 0.00 | 0.31 | 0.07 | 65 | 1014.4 |
| 20260510135225 | 49 | 19 | 0.0 | 0.0 | 0.00 | 0.31 | 0.07 | 69 | 1014.3 |
| 20260510134639 | 49 | 19 | 0.0 | 3.0 | 0.00 | 0.31 | 0.07 | 68 | 1014.1 |
| 20260510134115 | 49 | 19 | 0.0 | 3.0 | 0.00 | 0.31 | 0.07 | 67 | 1013.9 |
| 20260510133610 | 48 | 19 | 0.0 | 2.0 | 0.00 | 0.31 | 0.07 | 67 | 1013.8 |
| 20260510133243 | 48 | 19 | 1.0 | 5.0 | 0.00 | 0.31 | 0.07 | 67 | 1013.7 |
| 20260510132510 | 48 | 19 | 3.0 | 10.0 | 0.00 | 0.31 | 0.07 | 65 | 1013.7 |
| 20260510132004 | 47 | 22 | 2.0 | 10.0 | 0.00 | 0.31 | 0.07 | 64 | 1013.5 |
| 20260510131439 | 47 | 25 | 0.0 | 7.0 | 0.00 | 0.31 | 0.07 | 66 | 1013.3 |
| 20260510130940 | 47 | 35 | 1.0 | 5.0 | 0.00 | 0.31 | 0.07 | 70 | 1013.1 |
| 20260510130410 | 47 | 35 | 1.0 | 5.0 | 0.00 | 0.31 | 0.07 | 69 | 1013.2 |
| 20260510125910 | 47 | 40 | 0.0 | 0.0 | 0.00 | 0.31 | 0.07 | 71 | 1013.1 |
| 20260510125610 | 47 | 40 | 0.0 | 4.0 | 0.00 | 0.31 | 0.07 | 71 | 1013.0 |
| 20260510124839 | 47 | 40 | 1.0 | 4.0 | 0.00 | 0.31 | 0.07 | 72 | 1013.0 |
| 20260510124514 | 47 | 24 | 1.0 | 4.0 | 0.00 | 0.31 | 0.07 | 77 | 1013.0 |
| 20260510123714 | 47 | 23 | 0.0 | 3.0 | 0.00 | 0.31 | 0.07 | 81 | 1013.0 |
| 20260510123150 | 46 | 23 | 0.0 | 3.0 | 0.00 | 0.31 | 0.07 | 83 | 1012.8 |
| 20260510122645 | 46 | 24 | 0.0 | 0.0 | 0.00 | 0.31 | 0.07 | 87 | 1012.7 |
| 20260510122122 | 46 | 32 | 0.0 | 0.0 | 0.00 | 0.31 | 0.07 | 87 | 1012.5 |
| 20260510121617 | 45 | 32 | 0.0 | 0.0 | 0.00 | 0.31 | 0.07 | 90 | 1012.4 |
| 20260510121053 | 45 | 59 | 0.0 | 0.0 | 0.00 | 0.31 | 0.07 | 91 | 1012.1 |
| 20260510120557 | 45 | 59 | 0.0 | 0.0 | 0.00 | 0.31 | 0.07 | 93 | 1012.1 |
| 20260510120005 | 44 | 59 | 0.0 | 0.0 | 0.00 | 0.31 | 0.07 | 94 | 1012.0 |
| 20260510115419 | 44 | 59 | 0.0 | 0.0 | 0.00 | 0.31 | 0.07 | 94 | 1011.9 |
| 20260510114828 | 44 | 59 | 0.0 | 0.0 | 0.00 | 0.31 | 0.07 | 95 | 1011.9 |
| 20260510114301 | 44 | 59 | 0.0 | 0.0 | 0.00 | 0.31 | 0.07 | 95 | 1011.8 |
| 20260510113758 | 45 | 59 | 0.0 | 0.0 | 0.00 | 0.31 | 0.07 | 96 | 1011.5 |
| 20260510113256 | 45 | 59 | 0.0 | 0.0 | 0.00 | 0.31 | 0.07 | 96 | 1011.5 |
| 20260510113017 | 44 | 59 | 0.0 | 0.0 | 0.00 | 0.31 | 0.07 | 96 | 1011.4 |
| 20260510112431 | 44 | 59 | 0.0 | 0.0 | 0.00 | 0.31 | 0.07 | 96 | 1011.4 |
| 20260510111844 | 44 | 59 | 0.0 | 0.0 | 0.00 | 0.31 | 0.07 | 96 | 1011.2 |
| 20260510111052 | 44 | 59 | 0.0 | 0.0 | 0.00 | 0.31 | 0.07 | 96 | 1011.0 |
| 20260510110511 | 44 | 59 | 0.0 | 0.0 | 0.00 | 0.31 | 0.07 | 96 | 1010.6 |
| 20260510105946 | 44 | 59 | 0.0 | 0.0 | 0.00 | 0.31 | 0.07 | 96 | 1010.6 |
| 20260510105444 | 44 | 59 | 0.0 | 1.0 | 0.00 | 0.31 | 0.07 | 96 | 1010.6 |
| 20260510104910 | 44 | 59 | 0.0 | 1.0 | 0.00 | 0.31 | 0.07 | 96 | 1010.6 |
| 20260510104327 | 44 | 59 | 0.0 | 0.0 | 0.00 | 0.31 | 0.07 | 96 | 1010.2 |
| 20260510103802 | 44 | 59 | 0.0 | 0.0 | 0.00 | 0.31 | 0.07 | 96 | 1010.2 |
| 20260510103305 | 44 | 59 | 0.0 | 0.0 | 0.00 | 0.31 | 0.07 | 97 | 1010.1 |
| 20260510102740 | 44 | 59 | 0.0 | 0.0 | 0.00 | 0.31 | 0.07 | 97 | 1010.1 |
| 20260510102243 | 44 | 59 | 0.0 | 0.0 | 0.00 | 0.31 | 0.07 | 97 | 1010.1 |
| 20260510101705 | 44 | 59 | 0.0 | 0.0 | 0.00 | 0.31 | 0.07 | 96 | 1010.0 |
| 20260510101141 | 44 | 59 | 0.0 | 0.0 | 0.00 | 0.31 | 0.07 | 96 | 1009.9 |
| 20260510100602 | 44 | 59 | 0.0 | 0.0 | 0.00 | 0.31 | 0.07 | 97 | 1009.7 |
| 20260510100019 | 44 | 59 | 0.0 | 0.0 | 0.00 | 0.31 | 0.07 | 97 | 1009.8 |
| 20260510095454 | 44 | 59 | 0.0 | 0.0 | 0.00 | 0.31 | 0.07 | 97 | 1009.6 |
| 20260510094907 | 44 | 59 | 0.0 | 0.0 | 0.00 | 0.31 | 0.07 | 97 | 1009.6 |
| 20260510094315 | 44 | 59 | 0.0 | 0.0 | 0.00 | 0.31 | 0.07 | 96 | 1009.5 |
| 20260510094247 | 44 | 59 | 0.0 | 0.0 | 0.00 | 0.31 | 0.07 | 96 | 1009.4 |
| 20260510093305 | 45 | 59 | 0.0 | 0.0 | 0.00 | 0.31 | 0.07 | 97 | 1009.3 |
| 20260510092751 | 45 | 59 | 0.0 | 0.0 | 0.00 | 0.31 | 0.07 | 97 | 1009.3 |
| 20260510092249 | 45 | 59 | 0.0 | 0.0 | 0.00 | 0.31 | 0.07 | 97 | 1009.2 |
| 20260510091933 | 45 | 59 | 0.0 | 0.0 | 0.00 | 0.31 | 0.07 | 97 | 1009.0 |
| 20260510091133 | 45 | 59 | 0.0 | 0.0 | 0.00 | 0.31 | 0.07 | 97 | 1009.0 |
| 20260510090550 | 45 | 59 | 0.0 | 0.0 | 0.00 | 0.31 | 0.07 | 96 | 1008.9 |
| 20260510090011 | 45 | 59 | 0.0 | 0.0 | 0.00 | 0.31 | 0.07 | 96 | 1008.8 |
| 20260510085440 | 45 | 59 | 0.0 | 0.0 | 0.00 | 0.31 | 0.07 | 96 | 1008.8 |
| 20260510085130 | 45 | 59 | 0.0 | 0.0 | 0.00 | 0.31 | 0.07 | 96 | 1008.8 |
| 20260510084556 | 45 | 59 | 0.0 | 0.0 | 0.00 | 0.31 | 0.07 | 96 | 1008.4 |
| 20260510083751 | 45 | 59 | 0.0 | 0.0 | 0.00 | 0.31 | 0.07 | 96 | 1008.4 |
| 20260510083217 | 45 | 59 | 0.0 | 0.0 | 0.00 | 0.31 | 0.07 | 96 | 1008.3 |
| 20260510082640 | 46 | 59 | 0.0 | 0.0 | 0.00 | 0.31 | 0.07 | 100 | 1008.2 |
| 20260510082123 | 46 | 59 | 0.0 | 0.0 | 0.00 | 0.31 | 0.07 | 96 | 1008.2 |
| 20260510081548 | 46 | 59 | 0.0 | 0.0 | 0.00 | 0.31 | 0.07 | 96 | 1008.1 |
| 20260510081007 | 46 | 59 | 0.0 | 0.0 | 0.00 | 0.31 | 0.07 | 96 | 1008.0 |
| 20260510080439 | 46 | 59 | 0.0 | 0.0 | 0.00 | 0.31 | 0.07 | 96 | 1007.9 |
| 20260510075934 | 46 | 59 | 0.0 | 0.0 | 0.00 | 0.31 | 0.07 | 96 | 1007.9 |
| 20260510075435 | 46 | 59 | 0.0 | 0.0 | 0.00 | 0.31 | 0.07 | 96 | 1007.8 |
| 20260510075123 | 46 | 59 | 0.0 | 0.0 | 0.00 | 0.31 | 0.07 | 95 | 1007.8 |
| 20260510074347 | 46 | 59 | 0.0 | 0.0 | 0.00 | 0.31 | 0.07 | 95 | 1007.7 |
| 20260510073821 | 47 | 59 | 0.0 | 0.0 | 0.00 | 0.31 | 0.07 | 95 | 1007.6 |
| 20260510073251 | 47 | 59 | 0.0 | 0.0 | 0.00 | 0.31 | 0.07 | 95 | 1007.4 |
| 20260510072721 | 47 | 59 | 0.0 | 0.0 | 0.00 | 0.31 | 0.07 | 95 | 1007.4 |
| 20260510072149 | 47 | 59 | 0.0 | 0.0 | 0.00 | 0.31 | 0.07 | 95 | 1007.4 |
| 20260510071833 | 47 | 59 | 0.0 | 0.0 | 0.00 | 0.31 | 0.07 | 95 | 1007.3 |
| 20260510071049 | 47 | 59 | 0.0 | 0.0 | 0.00 | 0.31 | 0.07 | 95 | 1007.3 |
| 20260510070517 | 47 | 59 | 0.0 | 0.0 | 0.00 | 0.31 | 0.07 | 95 | 1007.2 |
| 20260510070207 | 48 | 59 | 0.0 | 0.0 | 0.01 | 0.31 | 0.07 | 94 | 1007.1 |
| 20260510065413 | 48 | 59 | 0.0 | 0.0 | 0.01 | 0.31 | 0.07 | 94 | 1007.1 |
| 20260510064855 | 48 | 59 | 0.0 | 0.0 | 0.01 | 0.31 | 0.07 | 94 | 1007.2 |
| 20260510064538 | 48 | 59 | 0.0 | 0.0 | 0.01 | 0.31 | 0.07 | 94 | 1007.2 |
| 20260510063815 | 48 | 59 | 0.0 | 0.0 | 0.02 | 0.31 | 0.07 | 93 | 1007.1 |
| 20260510063237 | 49 | 59 | 0.0 | 0.0 | 0.04 | 0.31 | 0.07 | 93 | 1007.1 |
| 20260510062707 | 49 | 59 | 0.0 | 0.0 | 0.05 | 0.31 | 0.07 | 93 | 1007.1 |
| 20260510062145 | 49 | 59 | 0.0 | 0.0 | 0.05 | 0.31 | 0.07 | 93 | 1007.0 |
| 20260510061639 | 49 | 59 | 0.0 | 0.0 | 0.06 | 0.31 | 0.07 | 93 | 1007.1 |
| 20260510061331 | 49 | 59 | 0.0 | 0.0 | 0.07 | 0.31 | 0.07 | 93 | 1006.9 |
| 20260510060535 | 50 | 59 | 0.0 | 0.0 | 0.07 | 0.31 | 0.07 | 93 | 1006.8 |
| 20260510060001 | 50 | 59 | 0.0 | 0.0 | 0.06 | 0.30 | 0.06 | 93 | 1006.9 |
| 20260510055453 | 50 | 59 | 0.0 | 3.0 | 0.06 | 0.30 | 0.06 | 92 | 1006.8 |
| 20260510054924 | 51 | 59 | 0.0 | 5.0 | 0.06 | 0.30 | 0.06 | 92 | 1006.6 |
| 20260510054351 | 51 | 59 | 0.0 | 5.0 | 0.06 | 0.30 | 0.06 | 91 | 1006.5 |
| 20260510053824 | 52 | 331 | 0.0 | 0.0 | 0.05 | 0.29 | 0.05 | 91 | 1007.2 |
| 20260510053312 | 52 | 331 | 0.0 | 0.0 | 0.04 | 0.28 | 0.04 | 90 | 1007.8 |
| 20260510052750 | 53 | 331 | 0.0 | 0.0 | 0.02 | 0.26 | 0.02 | 89 | 1007.6 |
| 20260510052253 | 53 | 340 | 1.0 | 3.0 | 0.02 | 0.26 | 0.02 | 89 | 1007.6 |
| 20260510051827 | 54 | 321 | 0.0 | 0.0 | 0.00 | 0.24 | 0.00 | 88 | 1007.0 |
| 20260510051803 | 54 | 347 | 0.0 | 5.0 | 0.01 | 0.25 | 0.01 | 88 | 1006.9 |
| 20260510051739 | 55 | 248 | 0.0 | 0.0 | 0.00 | 0.24 | 0.00 | 89 | 1006.2 |
| 20260510051731 | 55 | 248 | 0.0 | 3.0 | 0.00 | 0.24 | 0.00 | 89 | 1006.3 |
| 20260510045549 | 55 | 247 | 0.0 | 3.0 | 0.00 | 0.24 | 0.00 | 91 | 1006.1 |
| 20260510044559 | 55 | 183 | 0.0 | 0.0 | 0.00 | 0.24 | 0.00 | 92 | 1006.2 |
| 20260510043759 | 56 | 183 | 0.0 | 0.0 | 0.00 | 0.24 | 0.00 | 91 | 1005.9 |
| 20260510043226 | 56 | 183 | 0.0 | 0.0 | 0.00 | 0.24 | 0.00 | 90 | 1005.4 |
| 20260510042707 | 56 | 183 | 0.0 | 0.0 | 0.00 | 0.24 | 0.00 | 90 | 1005.4 |
| 20260510042119 | 56 | 183 | 0.0 | 0.0 | 0.00 | 0.24 | 0.00 | 90 | 1005.4 |
| 20260510041612 | 56 | 183 | 0.0 | 1.0 | 0.00 | 0.24 | 0.00 | 89 | 1005.5 |
| 20260510040948 | 56 | 183 | 0.0 | 2.0 | 0.00 | 0.24 | 0.00 | 89 | 1005.3 |
| 20260510040446 | 56 | 183 | 1.0 | 3.0 | 0.00 | 0.24 | 0.00 | 90 | 1005.1 |
| 20260510035911 | 56 | 183 | 2.0 | 5.0 | 0.00 | 0.24 | 0.24 | 91 | 1005.0 |
| 20260510035333 | 55 | 183 | 3.0 | 5.0 | 0.00 | 0.24 | 0.24 | 92 | 1004.9 |
| 20260510034819 | 55 | 182 | 2.0 | 4.0 | 0.00 | 0.24 | 0.24 | 92 | 1004.9 |
| 20260510034140 | 55 | 183 | 3.0 | 4.0 | 0.00 | 0.24 | 0.24 | 91 | 1004.9 |
| 20260510033633 | 55 | 183 | 3.0 | 4.0 | 0.00 | 0.24 | 0.24 | 91 | 1005.0 |
| 20260510033334 | 55 | 183 | 3.0 | 4.0 | 0.00 | 0.24 | 0.24 | 90 | 1004.9 |
| 20260510032609 | 55 | 183 | 3.0 | 4.0 | 0.00 | 0.24 | 0.24 | 90 | 1004.9 |
| 20260510032111 | 56 | 182 | 3.0 | 5.0 | 0.00 | 0.24 | 0.24 | 90 | 1004.9 |
| 20260510031602 | 55 | 182 | 3.0 | 5.0 | 0.00 | 0.24 | 0.24 | 91 | 1004.8 |
| 20260510031107 | 55 | 182 | 3.0 | 5.0 | 0.00 | 0.24 | 0.24 | 92 | 1004.8 |
| 20260510030543 | 55 | 182 | 3.0 | 5.0 | 0.00 | 0.24 | 0.24 | 92 | 1004.8 |
| 20260510030045 | 54 | 182 | 1.0 | 4.0 | 0.00 | 0.24 | 0.24 | 93 | 1004.8 |
| 20260510025523 | 54 | 182 | 0.0 | 3.0 | 0.00 | 0.24 | 0.24 | 93 | 1004.9 |
| 20260510025024 | 54 | 182 | 0.0 | 0.0 | 0.00 | 0.24 | 0.24 | 93 | 1004.5 |
| 20260510024442 | 54 | 182 | 0.0 | 0.0 | 0.00 | 0.24 | 0.24 | 92 | 1004.5 |
| 20260510023857 | 54 | 182 | 0.0 | 0.0 | 0.00 | 0.24 | 0.24 | 92 | 1004.7 |
| 20260510023310 | 55 | 182 | 0.0 | 0.0 | 0.00 | 0.24 | 0.24 | 91 | 1004.5 |
| 20260510022726 | 55 | 182 | 0.0 | 0.0 | 0.00 | 0.24 | 0.24 | 91 | 1004.5 |
| 20260510022133 | 55 | 182 | 0.0 | 0.0 | 0.00 | 0.24 | 0.24 | 91 | 1004.6 |
| 20260510021553 | 55 | 182 | 1.0 | 3.0 | 0.00 | 0.24 | 0.24 | 91 | 1004.7 |
| 20260510021001 | 55 | 182 | 1.0 | 3.0 | 0.00 | 0.24 | 0.24 | 91 | 1004.7 |
| 20260510020415 | 55 | 182 | 2.0 | 4.0 | 0.00 | 0.24 | 0.24 | 91 | 1004.6 |
| 20260510015910 | 55 | 182 | 2.0 | 4.0 | 0.00 | 0.24 | 0.24 | 91 | 1004.5 |
| 20260510015411 | 55 | 182 | 2.0 | 4.0 | 0.00 | 0.24 | 0.24 | 91 | 1004.5 |
| 20260510014822 | 55 | 182 | 2.0 | 5.0 | 0.00 | 0.24 | 0.24 | 91 | 1004.6 |
| 20260510014251 | 55 | 182 | 2.0 | 5.0 | 0.00 | 0.24 | 0.24 | 91 | 1004.5 |
| 20260510013752 | 56 | 182 | 1.0 | 3.0 | 0.00 | 0.24 | 0.24 | 91 | 1004.5 |
| 20260510013447 | 56 | 182 | 2.0 | 4.0 | 0.00 | 0.24 | 0.24 | 91 | 1004.1 |
| 20260510012654 | 56 | 182 | 2.0 | 4.0 | 0.00 | 0.24 | 0.24 | 91 | 1004.1 |
| 20260510012409 | 55 | 182 | 2.0 | 4.0 | 0.00 | 0.24 | 0.24 | 92 | 1004.0 |
| 20260510011636 | 55 | 182 | 2.0 | 5.0 | 0.00 | 0.24 | 0.24 | 92 | 1004.0 |
| 20260510011138 | 55 | 182 | 2.0 | 5.0 | 0.00 | 0.24 | 0.24 | 92 | 1003.9 |
| 20260510010621 | 55 | 182 | 2.0 | 5.0 | 0.00 | 0.24 | 0.24 | 92 | 1003.8 |
| 20260510010104 | 55 | 178 | 2.0 | 5.0 | 0.00 | 0.24 | 0.24 | 93 | 1003.8 |
| 20260510005820 | 55 | 178 | 3.0 | 6.0 | 0.00 | 0.24 | 0.24 | 93 | 1003.9 |
| 20260510005058 | 55 | 178 | 3.0 | 6.0 | 0.00 | 0.24 | 0.24 | 94 | 1003.9 |
| 20260510004748 | 55 | 173 | 2.0 | 5.0 | 0.00 | 0.25 | 0.24 | 94 | 1003.9 |
| 20260510004232 | 55 | 173 | 2.0 | 5.0 | 0.00 | 0.25 | 0.24 | 94 | 1003.9 |
| 20260510003457 | 55 | 172 | 2.0 | 5.0 | 0.00 | 0.25 | 0.24 | 94 | 1003.8 |
| 20260510002927 | 55 | 172 | 1.0 | 6.0 | 0.00 | 0.26 | 0.24 | 95 | 1003.7 |
| 20260510002427 | 56 | 175 | 2.0 | 6.0 | 0.00 | 0.27 | 0.24 | 95 | 1003.8 |
| 20260510001857 | 55 | 180 | 3.0 | 6.0 | 0.00 | 0.27 | 0.24 | 95 | 1003.7 |
| 20260510001353 | 55 | 180 | 3.0 | 6.0 | 0.01 | 0.28 | 0.24 | 95 | 1003.6 |
| 20260510000851 | 55 | 184 | 2.0 | 6.0 | 0.02 | 0.29 | 0.24 | 95 | 1003.6 |
| 20260510000350 | 55 | 184 | 2.0 | 5.0 | 0.04 | 0.29 | 0.24 | 95 | 1003.5 |
| 20260509235814 | 55 | 184 | 3.0 | 5.0 | 0.06 | 0.29 | 0.24 | 95 | 1003.6 |
| 20260509235310 | 55 | 184 | 2.0 | 5.0 | 0.09 | 0.29 | 0.24 | 95 | 1003.5 |
| 20260509235039 | 55 | 184 | 2.0 | 4.0 | 0.12 | 0.30 | 0.24 | 95 | 1003.4 |
| 20260509234307 | 55 | 184 | 2.0 | 4.0 | 0.16 | 0.30 | 0.24 | 95 | 1003.3 |
| 20260509234021 | 55 | 205 | 1.0 | 4.0 | 0.22 | 0.30 | 0.24 | 95 | 1003.2 |
| 20260509233238 | 55 | 178 | 0.0 | 3.0 | 0.24 | 0.31 | 0.24 | 95 | 1003.3 |
| 20260509233006 | 55 | 178 | 0.0 | 0.0 | 0.24 | 0.31 | 0.24 | 95 | 1003.2 |
| 20260509232211 | 54 | 178 | 0.0 | 5.0 | 0.24 | 0.31 | 0.24 | 95 | 1003.3 |
| 20260509231715 | 54 | 126 | 0.0 | 1.0 | 0.23 | 0.30 | 0.23 | 94 | 1003.5 |
| 20260509231425 | 54 | 126 | 0.0 | 4.0 | 0.22 | 0.29 | 0.22 | 93 | 1004.0 |
| 20260509230659 | 54 | 287 | 1.0 | 4.0 | 0.21 | 0.28 | 0.21 | 93 | 1004.0 |
| 20260509230138 | 54 | 271 | 2.0 | 9.0 | 0.20 | 0.27 | 0.20 | 92 | 1004.3 |
| 20260509225621 | 54 | 221 | 3.0 | 12.0 | 0.18 | 0.25 | 0.18 | 90 | 1004.3 |
| 20260509225118 | 55 | 304 | 2.0 | 12.0 | 0.13 | 0.20 | 0.13 | 88 | 1004.1 |
| 20260509224545 | 56 | 265 | 2.0 | 19.0 | 0.11 | 0.18 | 0.11 | 85 | 1004.1 |
| 20260509224048 | 58 | 339 | 4.0 | 19.0 | 0.05 | 0.12 | 0.05 | 79 | 1004.3 |
| 20260509223746 | 62 | 300 | 3.0 | 15.0 | 0.01 | 0.08 | 0.01 | 73 | 1004.4 |
| 20260509223017 | 65 | 318 | 1.0 | 10.0 | 0.00 | 0.07 | 0.00 | 70 | 1004.0 |
| 20260509222453 | 66 | 171 | 4.0 | 14.0 | 0.00 | 0.07 | 0.00 | 66 | 1002.4 |
| 20260509221952 | 67 | 173 | 5.0 | 14.0 | 0.00 | 0.07 | 0.00 | 62 | 1002.0 |
| 20260509221442 | 67 | 163 | 4.0 | 10.0 | 0.00 | 0.07 | 0.00 | 60 | 1002.1 |
| 20260509220941 | 68 | 175 | 5.0 | 13.0 | 0.00 | 0.07 | 0.00 | 60 | 1002.0 |
| 20260509220413 | 68 | 180 | 5.0 | 13.0 | 0.00 | 0.07 | 0.00 | 58 | 1002.0 |
| 20260509215916 | 68 | 189 | 5.0 | 15.0 | 0.00 | 0.07 | 0.00 | 59 | 1002.1 |
| 20260509215400 | 68 | 188 | 5.0 | 15.0 | 0.00 | 0.07 | 0.00 | 58 | 1002.2 |
| 20260509214859 | 68 | 182 | 4.0 | 12.0 | 0.00 | 0.07 | 0.00 | 60 | 1002.1 |
| 20260509214332 | 68 | 214 | 6.0 | 14.0 | 0.00 | 0.07 | 0.00 | 59 | 1001.8 |
| 20260509214027 | 68 | 170 | 8.0 | 14.0 | 0.00 | 0.07 | 0.00 | 59 | 1001.8 |
| 20260509213515 | 69 | 204 | 8.0 | 23.0 | 0.00 | 0.07 | 0.00 | 59 | 1001.7 |
| 20260509212752 | 69 | 169 | 8.0 | 23.0 | 0.00 | 0.07 | 0.00 | 59 | 1001.7 |
| 20260509212256 | 69 | 172 | 6.0 | 12.0 | 0.00 | 0.07 | 0.00 | 60 | 1001.8 |
| 20260509211739 | 68 | 169 | 7.0 | 17.0 | 0.00 | 0.07 | 0.00 | 60 | 1001.9 |
| 20260509211242 | 69 | 181 | 8.0 | 17.0 | 0.00 | 0.07 | 0.00 | 59 | 1001.7 |
| 20260509210723 | 69 | 175 | 7.0 | 13.0 | 0.00 | 0.07 | 0.00 | 59 | 1002.1 |
| 20260509210214 | 69 | 190 | 6.0 | 12.0 | 0.00 | 0.07 | 0.00 | 58 | 1002.0 |
| 20260509205717 | 69 | 210 | 5.0 | 13.0 | 0.00 | 0.07 | 0.00 | 58 | 1002.3 |
| 20260509205209 | 69 | 171 | 5.0 | 13.0 | 0.00 | 0.07 | 0.00 | 57 | 1002.3 |
| 20260509204928 | 69 | 180 | 6.0 | 16.0 | 0.00 | 0.07 | 0.00 | 57 | 1002.5 |
| 20260509204152 | 69 | 180 | 7.0 | 16.0 | 0.00 | 0.07 | 0.00 | 57 | 1002.4 |
| 20260509203921 | 68 | 177 | 7.0 | 12.0 | 0.00 | 0.07 | 0.00 | 59 | 1002.4 |
| 20260509203128 | 68 | 180 | 7.0 | 16.0 | 0.00 | 0.07 | 0.00 | 60 | 1002.6 |
| 20260509202628 | 68 | 205 | 7.0 | 16.0 | 0.00 | 0.07 | 0.00 | 60 | 1002.6 |
| 20260509202113 | 68 | 186 | 7.0 | 13.0 | 0.00 | 0.07 | 0.00 | 59 | 1002.7 |
| 20260509201606 | 68 | 193 | 6.0 | 14.0 | 0.00 | 0.07 | 0.00 | 60 | 1003.0 |
| 20260509201106 | 69 | 174 | 6.0 | 14.0 | 0.00 | 0.07 | 0.00 | 60 | 1003.1 |
| 20260509200604 | 69 | 182 | 4.0 | 14.0 | 0.00 | 0.07 | 0.00 | 60 | 1003.0 |
| 20260509200104 | 69 | 191 | 5.0 | 14.0 | 0.00 | 0.07 | 0.00 | 61 | 1003.0 |
| 20260509195604 | 69 | 223 | 5.0 | 14.0 | 0.00 | 0.07 | 0.00 | 59 | 1003.0 |
| 20260509195324 | 69 | 188 | 5.0 | 15.0 | 0.00 | 0.07 | 0.00 | 59 | 1003.0 |
| 20260509194534 | 68 | 170 | 5.0 | 15.0 | 0.00 | 0.07 | 0.00 | 61 | 1003.1 |
| 20260509194520 | 68 | 185 | 7.0 | 16.0 | 0.00 | 0.07 | 0.00 | 63 | 1003.1 |
| 20260509193532 | 67 | 203 | 8.0 | 16.0 | 0.00 | 0.07 | 0.00 | 62 | 1003.1 |
| 20260509193002 | 67 | 184 | 8.0 | 18.0 | 0.00 | 0.07 | 0.00 | 61 | 1003.3 |
| 20260509192502 | 67 | 229 | 8.0 | 18.0 | 0.00 | 0.07 | 0.00 | 61 | 1003.2 |
| 20260509192002 | 67 | 209 | 7.0 | 12.0 | 0.00 | 0.07 | 0.00 | 60 | 1003.2 |
| 20260509191712 | 67 | 199 | 7.0 | 16.0 | 0.00 | 0.07 | 0.00 | 61 | 1003.4 |
| 20260509190931 | 67 | 186 | 8.0 | 16.0 | 0.00 | 0.07 | 0.00 | 62 | 1003.5 |
| 20260509190423 | 67 | 179 | 8.0 | 16.0 | 0.00 | 0.07 | 0.00 | 61 | 1003.6 |
| 20260509185914 | 67 | 168 | 7.0 | 14.0 | 0.00 | 0.07 | 0.00 | 61 | 1003.6 |
| 20260509185342 | 68 | 174 | 6.0 | 13.0 | 0.00 | 0.07 | 0.00 | 60 | 1003.8 |
| 20260509184810 | 67 | 173 | 5.0 | 13.0 | 0.00 | 0.07 | 0.00 | 60 | 1003.9 |